[[{"header":{"parameterUnit":"m.s-1","parameterCategory":1,"la1":30.2991,"la2":30.254,"lo1":-89.0895,"lo2":-89.0444,"dy":0.0017,"dx":0.0017,"nx":28,"ny":28,"refTime":"2025-02-03T09:00:00:Z","depth":0,"parameterNumber":2,"parameterNumberName":"U-component_of_WINDS"},"data":[0,0,0,0,0,0,0,0,0,0,0,0,0,0,0,0,0,0,0,0,0,0,0,0,0,0,0,0,0,0,0,0,0,0,0,0,0,0,0,0,0,0,0,0,0,0,0,0,0,0,0,0,0,0,0,0,0,0,-1.2039,-1.2039,0,-1.203,-1.203,-1.203,-1.2004,-1.2003,-1.2003,-1.2002,-1.1992,-1.1992,-1.1993,0,0,0,0,0,0,0,0,0,0,0,0,0,-1.2033,-1.2033,-1.2039,-1.2039,-1.2039,-1.203,-1.203,-1.203,-1.2004,-1.2003,-1.2003,-1.2002,-1.1992,-1.1992,-1.1993,0,0,0,0,0,0,0,0,0,0,0,0,0,-1.2031,-1.2033,-1.2039,-1.2025,-1.2024,-1.203,-1.203,-1.203,-1.2004,-1.2003,-1.2002,-1.2002,-1.1992,-1.1992,-1.1993,-1.2012,0,0,-1.1994,-1.1994,0,0,0,0,0,0,0,0,-1.2031,-1.2031,-1.2027,-1.2026,-1.2024,-1.2017,-1.2024,-1.2024,-1.2004,-1.2011,-1.2002,-1.2001,-1.2001,-1.2001,-1.2001,-1.2012,-1.2011,-1.1994,-1.1994,-1.1994,-1.1994,0,0,0,0,0,0,0,-1.2031,-1.2031,-1.2035,-1.2027,-1.2025,-1.2018,-1.2017,-1.2024,-1.2011,-1.2011,-1.2009,-1.2008,-1.2,-1.2001,-1.2,-1.2011,-1.1994,-1.1994,-1.1995,-1.1995,-1.2035,-1.2036,0,0,0,0,0,0,-1.2033,-1.2032,-1.2036,-1.2035,-1.2026,-1.2019,-1.2018,-1.202,-1.2011,-1.2009,-1.2009,-1.2007,-1.2,-1.2,-1.2,-1.2021,-1.1994,-1.1995,-1.1995,-1.2035,-1.2036,-1.2036,0,0,0,0,0,0,-1.2033,-1.2034,-1.2036,-1.2033,-1.2033,-1.202,-1.2023,-1.2021,-1.2021,-1.201,-1.2007,-1.2012,-1.2,-1.1999,-1.2009,-1.202,-1.1995,-1.1995,-1.2034,-1.2035,-1.2036,-1.2063,0,0,0,0,0,0,-1.2033,-1.2034,-1.2042,-1.2033,-1.2033,-1.2046,-1.2024,-1.2021,-1.2022,-1.2019,-1.2011,-1.2009,-1.1999,-1.2008,-1.2009,-1.202,-1.1996,-1.2032,-1.2034,-1.2036,-1.2061,-1.2065,-1.2069,0,0,0,0,0,-1.2033,-1.205,-1.2042,-1.2043,-1.2042,-1.2046,-1.2046,-1.2034,-1.2023,-1.203,-1.2022,-1.201,-1.2019,-1.201,-1.201,-1.2022,-1.2032,-1.2034,-1.2036,-1.206,-1.2065,-1.2069,0,0,0,0,0,0,-1.206,-1.2049,-1.204,-1.2055,-1.2052,-1.2042,-1.2051,-1.204,-1.204,-1.2038,-1.2022,-1.2021,-1.2032,-1.2028,-1.2018,-1.2039,-1.2023,-1.2025,-1.2041,-1.2046,-1.2049,-1.205,-1.1996,0,0,0,0,0,-1.2068,-1.2073,-1.2062,-1.2076,-1.2075,-1.2063,-1.2065,-1.2056,-1.2052,-1.205,-1.2044,-1.204,-1.2042,-1.2044,-1.2045,-1.2061,-1.2058,-1.2069,-1.2072,-1.2076,-1.2077,-1.2084,-1.2088,-1.2043,-1.2043,-1.2043,0,0,-1.2084,-1.2078,-1.2082,-1.2082,-1.2078,-1.2083,-1.2063,-1.2069,-1.2072,-1.2051,-1.206,-1.2055,-1.205,-1.2062,-1.2067,-1.2059,-1.2089,-1.2078,-1.2081,-1.2081,-1.2086,-1.2091,-1.2094,-1.2044,-1.2044,-1.2044,0,0,-1.2115,-1.2112,-1.2123,-1.2119,-1.2114,-1.2106,-1.2109,-1.2101,-1.2096,-1.2105,-1.2089,-1.2092,-1.2096,-1.2093,-1.2092,-1.2121,-1.2108,-1.2122,-1.2141,-1.2147,-1.2151,-1.2154,-1.2163,-1.2167,-1.2124,-1.2124,-1.2124,0,-1.2136,-1.2143,-1.2129,-1.2136,-1.2136,-1.2117,-1.2128,-1.2125,-1.2121,-1.2121,-1.2112,-1.2115,-1.2111,-1.2122,-1.2128,-1.2129,-1.213,-1.2122,-1.2152,-1.2154,-1.2157,-1.2166,-1.2169,-1.2125,-1.2125,-1.2125,-1.2125,0,-1.2167,-1.2172,-1.2181,-1.2177,-1.2178,-1.2187,-1.2174,-1.2176,-1.2167,-1.2159,-1.2167,-1.2161,-1.216,-1.2162,-1.2153,-1.2171,-1.2166,-1.2154,-1.2138,-1.2163,-1.2171,-1.2174,-1.2127,-1.2127,-1.2126,-1.2126,0,0,-1.2216,-1.2204,-1.2207,-1.2205,-1.2198,-1.2201,-1.2208,-1.2207,-1.2209,-1.2206,-1.2211,-1.2214,-1.2203,-1.2202,-1.2192,-1.2198,-1.222,-1.2186,-1.2186,-1.2192,-1.2238,-1.2246,-1.225,-1.2212,-1.2213,-1.2213,-1.2238,0,-1.2245,-1.2257,-1.2244,-1.2258,-1.2262,-1.2244,-1.225,-1.2246,-1.2239,-1.224,-1.2233,-1.2235,-1.2221,-1.222,-1.2225,-1.2216,-1.2229,-1.2214,-1.2215,-1.2216,-1.2217,-1.2254,-1.2263,-1.2287,-1.2241,-1.2241,-1.2242,0,-1.228,-1.2279,-1.2293,-1.2284,-1.2285,-1.2291,-1.2288,-1.229,-1.2284,-1.2279,-1.2277,-1.2265,-1.227,-1.2255,-1.2261,-1.2252,-1.2251,-1.2247,-1.2248,-1.2247,-1.223,-1.2253,-1.2294,-1.2297,-1.2247,-1.2246,-1.2246,0,-1.2313,-1.2315,-1.2323,-1.2322,-1.2311,-1.2315,-1.2311,-1.2305,-1.2305,-1.2302,-1.2302,-1.23,-1.2299,-1.2298,-1.2285,-1.2275,-1.2293,-1.2277,-1.2287,-1.2288,-1.2292,-1.2291,-1.2332,-1.2293,-1.2293,-1.2293,-1.2293,0,-1.2346,-1.2355,-1.2338,-1.2343,-1.2352,-1.2338,-1.2347,-1.2341,-1.2335,-1.2338,-1.2323,-1.2326,-1.231,-1.2311,-1.2301,-1.2307,-1.2307,-1.2302,-1.2299,-1.2303,-1.2303,-1.2302,-1.23,-1.2294,-1.2293,-1.2293,-1.2293,0,-1.2384,-1.2373,-1.2381,-1.237,-1.2367,-1.2375,-1.2365,-1.2369,-1.236,-1.2364,-1.2364,-1.2351,-1.2351,-1.2339,-1.2337,-1.233,-1.234,-1.2335,-1.2342,-1.234,-1.2351,-1.235,-1.2392,-1.2396,-1.2355,-1.2355,-1.2356,0,-1.2406,-1.2412,-1.2402,-1.2403,-1.2399,-1.2401,-1.2401,-1.2386,-1.2386,-1.238,-1.2384,-1.2383,-1.2381,-1.2382,-1.2372,-1.237,-1.2364,-1.2379,-1.2363,-1.2367,-1.2363,-1.2362,-1.2362,-1.2382,-1.2382,-1.2383,-1.2383,0,-1.2445,-1.2439,-1.2439,-1.2437,-1.2436,-1.2434,-1.243,-1.2432,-1.2416,-1.2417,-1.2417,-1.2415,-1.2413,-1.2411,-1.2407,-1.2402,-1.2389,-1.2388,-1.239,-1.2394,-1.2397,-1.2394,-1.235,-1.2387,-1.2386,-1.2386,-1.2386,-1.2386,-1.2475,-1.2479,-1.2473,-1.2473,-1.2468,-1.2465,-1.2468,-1.246,-1.2459,-1.2456,-1.2447,-1.2449,-1.2441,-1.2434,-1.243,-1.243,-1.2423,-1.2426,-1.2427,-1.2428,-1.2429,-1.2398,-1.2429,-1.2429,-1.2429,-1.2429,-1.2429,0,-1.2513,-1.2507,-1.2507,-1.2503,-1.2502,-1.2491,-1.2486,-1.2486,-1.2488,-1.2482,-1.248,-1.248,-1.2478,-1.2467,-1.2464,-1.2466,-1.246,-1.2466,-1.2465,-1.2464,-1.2437,-1.2435,-1.247,-1.247,-1.247,-1.247,-1.247,-1.247,-1.2532,-1.2539,-1.2531,-1.2535,-1.2529,-1.253,-1.2528,-1.2525,-1.252,-1.252,-1.2519,-1.2512,-1.2504,-1.2499,-1.2497,-1.2494,-1.2493,-1.25,-1.2495,-1.247,-1.2466,-1.2462,-1.246,-1.25,-1.25,-1.2522,-1.2522,-1.2522]},{"header":{"parameterUnit":"m.s-1","parameterCategory":1,"la1":30.2991,"la2":30.254,"lo1":-89.0895,"lo2":-89.0444,"dy":0.0017,"dx":0.0017,"nx":28,"ny":28,"refTime":"2025-02-03T09:00:00:Z","depth":0,"parameterNumber":3,"parameterNumberName":"V-component_of_WINDS"},"data":[0,0,0,0,0,0,0,0,0,0,0,0,0,0,0,0,0,0,0,0,0,0,0,0,0,0,0,0,0,0,0,0,0,0,0,0,0,0,0,0,0,0,0,0,0,0,0,0,0,0,0,0,0,0,0,0,0,0,1.6241,1.6241,0,1.6286,1.6287,1.6287,1.6287,1.6286,1.6286,1.6285,1.6331,1.6333,1.6334,0,0,0,0,0,0,0,0,0,0,0,0,0,1.6153,1.6155,1.6241,1.6241,1.6242,1.6286,1.6287,1.6287,1.6287,1.6286,1.6286,1.6285,1.633,1.6332,1.6334,0,0,0,0,0,0,0,0,0,0,0,0,0,1.6194,1.6155,1.6241,1.6247,1.6248,1.6286,1.6287,1.6288,1.6287,1.6286,1.6286,1.6285,1.633,1.6332,1.6335,1.6369,0,0,1.6343,1.6344,0,0,0,0,0,0,0,0,1.6192,1.6197,1.6246,1.6247,1.6248,1.628,1.6273,1.6315,1.6288,1.6272,1.6285,1.6284,1.6315,1.6318,1.6329,1.6371,1.6373,1.6343,1.6345,1.6346,1.6347,0,0,0,0,0,0,0,1.6189,1.6195,1.6259,1.6246,1.6248,1.6248,1.6252,1.6281,1.6298,1.6274,1.6274,1.6279,1.6315,1.6326,1.633,1.6374,1.6343,1.6345,1.6347,1.6348,1.6446,1.6447,0,0,0,0,0,0,1.6185,1.6193,1.6257,1.626,1.6217,1.625,1.6255,1.6271,1.6298,1.6301,1.628,1.6279,1.6322,1.6327,1.6332,1.6374,1.6346,1.6348,1.635,1.6445,1.6447,1.6448,0,0,0,0,0,0,1.6183,1.6191,1.6255,1.6227,1.6235,1.6252,1.627,1.6272,1.6283,1.6302,1.6305,1.6288,1.6322,1.6328,1.636,1.6376,1.6349,1.6352,1.6444,1.6446,1.6447,1.6459,0,0,0,0,0,0,1.618,1.619,1.6203,1.6227,1.6236,1.6283,1.6271,1.6274,1.6288,1.6287,1.6311,1.6314,1.6321,1.6356,1.6362,1.6379,1.6354,1.6443,1.6445,1.6447,1.6457,1.646,1.6463,0,0,0,0,0,1.6177,1.6204,1.6204,1.6212,1.6254,1.6284,1.629,1.6298,1.6289,1.6303,1.6315,1.6313,1.6372,1.6359,1.6367,1.6384,1.6442,1.6444,1.6447,1.6456,1.646,1.6463,0,0,0,0,0,0,1.6182,1.6208,1.6207,1.6243,1.6261,1.6284,1.6302,1.6302,1.6323,1.6321,1.633,1.6336,1.6368,1.6379,1.6363,1.6418,1.6406,1.641,1.641,1.6415,1.6418,1.6415,1.6356,0,0,0,0,0,1.6187,1.621,1.6231,1.626,1.627,1.6284,1.6298,1.6302,1.6322,1.633,1.6344,1.6363,1.6386,1.64,1.6422,1.6458,1.6464,1.6474,1.6477,1.6479,1.6483,1.6503,1.6508,1.6455,1.6455,1.6455,0,0,1.6198,1.6215,1.6229,1.6262,1.6277,1.63,1.6291,1.6316,1.6334,1.6333,1.6365,1.6376,1.6397,1.6432,1.6447,1.6442,1.6498,1.6482,1.6484,1.6486,1.6506,1.6511,1.6515,1.6457,1.6457,1.6456,0,0,1.623,1.6245,1.6272,1.6287,1.6309,1.6319,1.6325,1.6348,1.6355,1.6387,1.6387,1.6408,1.6447,1.6463,1.6475,1.6513,1.6513,1.652,1.6537,1.6557,1.6561,1.6565,1.6579,1.6584,1.6523,1.6523,1.6523,0,1.6241,1.6277,1.6285,1.6311,1.6325,1.6326,1.6353,1.6367,1.6396,1.6406,1.6399,1.6448,1.6463,1.6501,1.651,1.652,1.6528,1.6518,1.656,1.6564,1.6567,1.6581,1.6586,1.6524,1.6524,1.6524,1.6524,0,1.629,1.6314,1.6333,1.6361,1.6378,1.6404,1.6416,1.6431,1.6434,1.6444,1.6477,1.6494,1.6519,1.6528,1.6531,1.6567,1.6563,1.6558,1.6546,1.6573,1.6586,1.6591,1.6525,1.6525,1.6525,1.6525,0,0,1.6327,1.6359,1.6366,1.6379,1.6404,1.6423,1.6449,1.6475,1.6488,1.6508,1.653,1.6563,1.6558,1.6573,1.6577,1.6595,1.6624,1.6587,1.6588,1.6594,1.6666,1.667,1.6676,1.6624,1.6625,1.6625,1.6664,0,1.6363,1.641,1.6418,1.6459,1.6482,1.6483,1.6505,1.6523,1.6533,1.6554,1.6564,1.6588,1.6579,1.6588,1.6605,1.6617,1.6639,1.6614,1.6645,1.6646,1.6641,1.6683,1.6688,1.6724,1.6669,1.667,1.6671,0,1.6412,1.6433,1.6476,1.6498,1.6508,1.6529,1.6553,1.6573,1.6593,1.6598,1.6615,1.6617,1.6644,1.663,1.6667,1.665,1.6663,1.6671,1.6672,1.6676,1.6661,1.6689,1.6735,1.6741,1.6679,1.6678,1.6677,0,1.6436,1.6475,1.6507,1.6517,1.6544,1.6558,1.6569,1.6588,1.6603,1.6624,1.6634,1.6657,1.667,1.6688,1.6697,1.6686,1.6734,1.672,1.674,1.674,1.6751,1.675,1.6801,1.6757,1.6757,1.6757,1.6757,0,1.6476,1.6503,1.6518,1.6537,1.6567,1.6576,1.6605,1.6616,1.6633,1.6654,1.6656,1.6676,1.6685,1.6707,1.6714,1.6744,1.6749,1.6755,1.6757,1.6756,1.6755,1.6765,1.6763,1.6758,1.6758,1.6758,1.6758,0,1.6509,1.652,1.6555,1.6576,1.6583,1.6604,1.6623,1.6641,1.665,1.6678,1.6684,1.6699,1.6724,1.6734,1.6765,1.677,1.6805,1.6804,1.6798,1.6799,1.6818,1.6817,1.6878,1.6887,1.6836,1.6837,1.6837,0,1.6535,1.6555,1.658,1.6594,1.6606,1.663,1.6645,1.6654,1.6669,1.6693,1.6709,1.6735,1.6755,1.6796,1.6809,1.6832,1.6833,1.6852,1.6836,1.6835,1.6834,1.6834,1.6836,1.6856,1.6856,1.6857,1.6857,0,1.6579,1.6584,1.6606,1.663,1.6648,1.6668,1.6686,1.6698,1.6709,1.6727,1.6753,1.6769,1.6801,1.6826,1.685,1.6862,1.6862,1.6862,1.6868,1.6868,1.6864,1.6867,1.6808,1.6861,1.686,1.686,1.686,1.686,1.661,1.6629,1.6649,1.6674,1.6689,1.6706,1.6725,1.6737,1.6759,1.6785,1.6789,1.6817,1.6836,1.6868,1.6881,1.6903,1.6898,1.6906,1.6908,1.6911,1.6912,1.6859,1.6907,1.6907,1.6907,1.6907,1.6907,0,1.6656,1.6669,1.6691,1.6718,1.6737,1.6735,1.6756,1.6772,1.6797,1.6815,1.6835,1.6865,1.6889,1.6904,1.6929,1.6943,1.6944,1.695,1.6949,1.6952,1.6915,1.6908,1.6949,1.6949,1.6949,1.6949,1.6949,1.6949,1.6682,1.6714,1.6721,1.676,1.6772,1.68,1.6812,1.6828,1.6843,1.6876,1.6897,1.6906,1.6923,1.6948,1.6971,1.6974,1.6984,1.699,1.6993,1.6959,1.6955,1.695,1.6944,1.6992,1.6992,1.7029,1.7029,1.7029]}]]